Location: Ferchesar
(52.6477°N, 12.4298°E)
Time: 14:06:49
(UTC+02:00)

Transit 4A - Pass Details

Date: 04 March 2021
Orbit: 869 x 975 km, 66.8° (Epoch: 16 April)

Event Time Altitude Azimuth Distance (km) Brightness Sun altitude
Rises 08:49:54 0° 158° (SSE) 3,658 12.0 16.0°
Reaches altitude 10° 08:53:32 10° 138° (SE) 2,709 12.4 16.4°
Maximum altitude 08:57:07 16° 103° (ESE) 2,299 11.5 16.9°
Drops below altitude 10° 09:00:41 10° 68° (ENE) 2,691 10.8 17.3°
Sets 09:04:15 0° 48° (NE) 3,623 11.1 17.8°
